[[{"header":{"parameterUnit":"m.s-1","parameterCategory":1,"la1":30.2991,"la2":30.254,"lo1":-89.0895,"lo2":-89.0444,"dy":0.0017,"dx":0.0017,"nx":28,"ny":28,"refTime":"2023-09-06T03:00:00:Z","depth":0,"parameterNumber":2,"parameterNumberName":"U-component_of_WINDS"},"data":[0,0,0,0,0,0,0,0,0,0,0,0,0,0,0,0,0,0,0,0,0,0,0,0,0,0,0,0,0,0,0,0,0,0,0,0,0,0,0,0,0,0,0,0,0,0,0,0,0,0,0,0,0,0,0,0,0,0,1.2757,1.2758,0,1.2838,1.2839,1.284,1.2848,1.2847,1.2846,1.2846,1.2935,1.2938,1.2941,0,0,0,0,0,0,0,0,0,0,0,0,0,1.2614,1.2616,1.2757,1.2758,1.2759,1.2838,1.2839,1.2841,1.2848,1.2847,1.2846,1.2845,1.2933,1.2937,1.2941,0,0,0,0,0,0,0,0,0,0,0,0,0,1.2684,1.2617,1.2757,1.2772,1.2775,1.2838,1.2839,1.2841,1.2849,1.2847,1.2846,1.2845,1.2932,1.2937,1.2942,1.2997,0,0,1.2956,1.2958,0,0,0,0,0,0,0,0,1.268,1.2689,1.2769,1.2771,1.2774,1.2832,1.2821,1.2893,1.2849,1.2821,1.2846,1.2844,1.2902,1.2909,1.2927,1.3001,1.3005,1.2957,1.2959,1.2961,1.2963,0,0,0,0,0,0,0,1.2675,1.2686,1.2789,1.277,1.2773,1.2777,1.2786,1.2835,1.2868,1.2823,1.2824,1.2833,1.2903,1.2923,1.2929,1.3006,1.2956,1.2961,1.2964,1.2965,1.313,1.3132,0,0,0,0,0,0,1.2666,1.2682,1.2787,1.2792,1.2723,1.2781,1.279,1.2815,1.2867,1.2874,1.2834,1.2833,1.2915,1.2924,1.2933,1.3001,1.2961,1.2966,1.2969,1.3129,1.3131,1.3132,0,0,0,0,0,0,1.2663,1.2676,1.2784,1.2737,1.2751,1.2784,1.2812,1.2817,1.2836,1.2875,1.2882,1.2848,1.2914,1.2926,1.2981,1.3005,1.2968,1.2972,1.3127,1.313,1.3132,1.3139,0,0,0,0,0,0,1.2659,1.2675,1.2695,1.2737,1.2753,1.2829,1.2813,1.2819,1.2844,1.2844,1.289,1.2897,1.2914,1.2973,1.2985,1.301,1.2976,1.3125,1.3128,1.3131,1.3137,1.3141,1.3145,0,0,0,0,0,1.2654,1.2695,1.2696,1.2708,1.2779,1.283,1.2839,1.2857,1.2846,1.2867,1.2892,1.2895,1.3,1.2979,1.2992,1.3019,1.3124,1.3127,1.3131,1.3135,1.314,1.3145,0,0,0,0,0,0,1.2656,1.27,1.2702,1.2757,1.2789,1.2831,1.2859,1.2863,1.29,1.2898,1.2921,1.2931,1.2986,1.3008,1.2984,1.3076,1.3061,1.3067,1.3059,1.3065,1.3069,1.3063,1.298,0,0,0,0,0,1.2662,1.2698,1.2736,1.2781,1.2797,1.2825,1.2848,1.2859,1.2894,1.2908,1.2937,1.2973,1.3014,1.3041,1.308,1.314,1.3151,1.3165,1.3169,1.3172,1.3178,1.3212,1.3219,1.3144,1.3144,1.3144,0,0,1.2677,1.2706,1.2727,1.2782,1.2809,1.2847,1.2837,1.2878,1.2907,1.2915,1.2968,1.2991,1.3032,1.309,1.3116,1.311,1.3201,1.3177,1.3179,1.3183,1.3216,1.3223,1.3229,1.3146,1.3146,1.3145,0,0,1.2723,1.2748,1.2788,1.2814,1.2854,1.2872,1.2882,1.2923,1.2937,1.2991,1.2998,1.3034,1.3104,1.3133,1.3157,1.3214,1.3218,1.3226,1.3248,1.3281,1.3287,1.3292,1.3314,1.3321,1.3231,1.3231,1.3231,0,1.2737,1.2793,1.2809,1.285,1.2874,1.2881,1.2924,1.2949,1.3,1.3018,1.3009,1.3097,1.3125,1.319,1.3204,1.3223,1.3236,1.3221,1.3284,1.329,1.3295,1.3316,1.3324,1.3232,1.3232,1.3232,1.3232,0,1.2808,1.2848,1.2876,1.2923,1.2951,1.2992,1.3016,1.3043,1.3051,1.3071,1.3126,1.3159,1.3206,1.3222,1.3232,1.3289,1.3284,1.3279,1.3265,1.3303,1.3323,1.3331,1.3233,1.3233,1.3233,1.3233,0,0,1.2859,1.2913,1.2924,1.2945,1.2989,1.3021,1.3063,1.3107,1.313,1.3165,1.3202,1.3261,1.3257,1.3284,1.3297,1.3326,1.337,1.3318,1.332,1.3327,1.3436,1.3439,1.3448,1.3372,1.3374,1.3375,1.3432,0,1.2911,1.2984,1.3,1.3064,1.3101,1.3108,1.3145,1.3177,1.3197,1.3232,1.3255,1.3296,1.3287,1.3304,1.3333,1.3358,1.3392,1.3354,1.3409,1.341,1.3399,1.3458,1.3462,1.3514,1.344,1.3441,1.3442,0,1.2981,1.3016,1.3083,1.3122,1.3138,1.3171,1.3213,1.3246,1.3283,1.3295,1.3325,1.3335,1.3381,1.3363,1.3427,1.3401,1.3425,1.3441,1.3443,1.345,1.3429,1.3467,1.3531,1.3539,1.3455,1.3454,1.3453,0,1.3012,1.3076,1.3125,1.3143,1.3189,1.3212,1.3233,1.3268,1.3294,1.3331,1.3348,1.3391,1.3414,1.3448,1.3469,1.3454,1.3533,1.3516,1.3545,1.3545,1.3563,1.3561,1.3632,1.3576,1.3576,1.3576,1.3575,0,1.3069,1.311,1.3139,1.3169,1.3216,1.3234,1.3281,1.3302,1.3333,1.3368,1.3378,1.3411,1.3437,1.3474,1.3492,1.3543,1.3554,1.3566,1.357,1.3566,1.3564,1.3582,1.3579,1.3578,1.3577,1.3577,1.3576,0,1.3112,1.3133,1.3187,1.3225,1.3236,1.3269,1.3304,1.3334,1.3353,1.3398,1.341,1.3441,1.3485,1.3509,1.3566,1.3578,1.3635,1.3637,1.3622,1.3624,1.3652,1.365,1.3738,1.3751,1.3685,1.3685,1.3686,0,1.3147,1.3179,1.3221,1.3244,1.3265,1.3303,1.3329,1.3348,1.3375,1.3419,1.3444,1.3489,1.3526,1.3597,1.3626,1.3669,1.3673,1.3701,1.368,1.3674,1.3674,1.3672,1.3676,1.3705,1.3705,1.3706,1.3706,0,1.3208,1.3217,1.3252,1.3292,1.3322,1.3355,1.3387,1.3406,1.3431,1.3461,1.3505,1.3534,1.3591,1.3635,1.3681,1.3704,1.371,1.3712,1.3722,1.3718,1.3708,1.3714,1.3633,1.3711,1.371,1.371,1.371,1.3709,1.3249,1.3278,1.3312,1.3351,1.3377,1.3407,1.3437,1.346,1.3497,1.3543,1.3553,1.36,1.3637,1.3698,1.3723,1.3761,1.3756,1.3769,1.3773,1.3776,1.3777,1.3701,1.377,1.377,1.377,1.3769,1.3769,0,1.3311,1.3333,1.3369,1.3413,1.3445,1.3445,1.3481,1.3508,1.3549,1.3582,1.3617,1.3669,1.3712,1.3744,1.3788,1.3813,1.3817,1.3824,1.3823,1.3829,1.3779,1.3767,1.3821,1.3821,1.3821,1.3821,1.3821,1.3821,1.3347,1.3396,1.3408,1.347,1.3492,1.3538,1.3558,1.3586,1.3612,1.3669,1.3704,1.3724,1.3757,1.3803,1.3844,1.3852,1.3869,1.3876,1.3884,1.3838,1.3832,1.3827,1.3816,1.3879,1.3879,1.3931,1.3932,1.3932]},{"header":{"parameterUnit":"m.s-1","parameterCategory":1,"la1":30.2991,"la2":30.254,"lo1":-89.0895,"lo2":-89.0444,"dy":0.0017,"dx":0.0017,"nx":28,"ny":28,"refTime":"2023-09-06T03:00:00:Z","depth":0,"parameterNumber":3,"parameterNumberName":"V-component_of_WINDS"},"data":[0,0,0,0,0,0,0,0,0,0,0,0,0,0,0,0,0,0,0,0,0,0,0,0,0,0,0,0,0,0,0,0,0,0,0,0,0,0,0,0,0,0,0,0,0,0,0,0,0,0,0,0,0,0,0,0,0,0,2.2697,2.2697,0,2.2705,2.2705,2.2705,2.2703,2.2703,2.2703,2.2703,2.2707,2.2707,2.2708,0,0,0,0,0,0,0,0,0,0,0,0,0,2.2674,2.2674,2.2697,2.2697,2.2697,2.2705,2.2705,2.2705,2.2703,2.2703,2.2703,2.2703,2.2707,2.2707,2.2708,0,0,0,0,0,0,0,0,0,0,0,0,0,2.2683,2.2675,2.2697,2.2697,2.2697,2.2705,2.2705,2.2705,2.2703,2.2703,2.2703,2.2702,2.2707,2.2707,2.2708,2.2715,0,0,2.2709,2.2709,0,0,0,0,0,0,0,0,2.2683,2.2684,2.2697,2.2697,2.2697,2.2703,2.2699,2.2708,2.2703,2.2701,2.2703,2.2702,2.2706,2.2706,2.2708,2.2715,2.2715,2.2709,2.2709,2.2709,2.2709,0,0,0,0,0,0,0,2.2682,2.2684,2.27,2.2697,2.2697,2.2695,2.2696,2.27,2.2704,2.2701,2.2701,2.2702,2.2706,2.2708,2.2708,2.2715,2.2709,2.2709,2.2709,2.271,2.2723,2.2724,0,0,0,0,0,0,2.2682,2.2683,2.27,2.27,2.2689,2.2696,2.2697,2.2701,2.2704,2.2705,2.2702,2.2702,2.2707,2.2708,2.2708,2.2714,2.2709,2.271,2.271,2.2723,2.2723,2.2724,0,0,0,0,0,0,2.2681,2.2684,2.27,2.2692,2.2694,2.2696,2.2701,2.2702,2.2704,2.2705,2.2705,2.2704,2.2707,2.2708,2.2712,2.2714,2.271,2.271,2.2723,2.2723,2.2724,2.2727,0,0,0,0,0,0,2.2681,2.2683,2.2688,2.2692,2.2694,2.2706,2.2702,2.2702,2.2705,2.2704,2.2707,2.2707,2.2707,2.2712,2.2713,2.2715,2.271,2.2723,2.2723,2.2723,2.2727,2.2728,2.2728,0,0,0,0,0,2.268,2.2689,2.2688,2.269,2.27,2.2706,2.2707,2.2707,2.2705,2.2708,2.2708,2.2707,2.2714,2.2712,2.2713,2.2715,2.2723,2.2723,2.2723,2.2727,2.2728,2.2728,0,0,0,0,0,0,2.2684,2.2689,2.2689,2.2699,2.2702,2.2705,2.271,2.2709,2.2712,2.2711,2.271,2.2711,2.2715,2.2716,2.2714,2.272,2.2718,2.2718,2.272,2.2721,2.2721,2.2721,2.2711,0,0,0,0,0,2.2686,2.2693,2.2696,2.2705,2.2706,2.2707,2.271,2.271,2.2713,2.2714,2.2714,2.2716,2.2718,2.2719,2.2722,2.2727,2.2726,2.2728,2.2729,2.273,2.273,2.2729,2.273,2.2725,2.2725,2.2725,0,0,2.2691,2.2694,2.2698,2.2705,2.2708,2.2712,2.2709,2.2714,2.2716,2.2714,2.2718,2.2719,2.2719,2.2724,2.2726,2.2724,2.2731,2.273,2.273,2.273,2.273,2.273,2.2731,2.2725,2.2725,2.2725,0,0,2.2701,2.2705,2.2712,2.2714,2.2717,2.2717,2.2719,2.2721,2.2722,2.2726,2.2724,2.2725,2.273,2.273,2.273,2.2736,2.2734,2.2737,2.2739,2.2739,2.274,2.274,2.274,2.274,2.2737,2.2737,2.2737,0,2.2706,2.2714,2.2715,2.272,2.2721,2.272,2.2724,2.2726,2.2729,2.2729,2.2728,2.2731,2.2732,2.2735,2.2736,2.2737,2.2737,2.2737,2.274,2.274,2.274,2.274,2.2741,2.2737,2.2737,2.2737,2.2737,0,2.2718,2.2723,2.2728,2.2731,2.2733,2.2738,2.2737,2.2739,2.2738,2.2737,2.274,2.274,2.2741,2.2742,2.2741,2.2743,2.2742,2.274,2.2738,2.2741,2.2741,2.2741,2.2737,2.2737,2.2737,2.2737,0,0,2.2733,2.2735,2.2737,2.2737,2.2739,2.2742,2.2744,2.2746,2.2746,2.2748,2.2748,2.2751,2.2748,2.2748,2.2747,2.2747,2.2748,2.2745,2.2745,2.2744,2.2748,2.2749,2.2749,2.2747,2.2747,2.2747,2.2747,0,2.2742,2.2749,2.2748,2.2754,2.2756,2.2753,2.2755,2.2755,2.2754,2.2754,2.2753,2.2753,2.2751,2.2751,2.2751,2.2748,2.2749,2.2748,2.2745,2.2745,2.2745,2.2749,2.2751,2.2752,2.2748,2.2748,2.2748,0,2.2754,2.2756,2.2762,2.276,2.2761,2.2764,2.2763,2.2764,2.2763,2.2762,2.2761,2.2758,2.2758,2.2755,2.2754,2.2753,2.2752,2.275,2.275,2.2749,2.2747,2.2747,2.2752,2.2752,2.2748,2.2748,2.2748,0,2.2762,2.2766,2.2769,2.2769,2.2768,2.2769,2.2768,2.2767,2.2767,2.2766,2.2765,2.2763,2.2762,2.276,2.2756,2.2755,2.2754,2.2752,2.2751,2.2751,2.2751,2.2751,2.2755,2.2752,2.2752,2.2752,2.2752,0,2.2772,2.2775,2.2772,2.2774,2.2776,2.2774,2.2775,2.2774,2.2772,2.2772,2.2768,2.2768,2.2763,2.2761,2.2758,2.2756,2.2756,2.2753,2.2752,2.2753,2.2753,2.2752,2.2751,2.2752,2.2752,2.2752,2.2752,0,2.2781,2.2779,2.2782,2.278,2.278,2.2781,2.2779,2.2779,2.2777,2.2776,2.2776,2.2772,2.2769,2.2765,2.2761,2.2758,2.2756,2.2755,2.2757,2.2756,2.2755,2.2755,2.2757,2.2756,2.2755,2.2755,2.2755,0,2.2787,2.2789,2.2787,2.2787,2.2786,2.2786,2.2786,2.2782,2.2781,2.2778,2.2778,2.2775,2.2773,2.2768,2.2764,2.276,2.2758,2.2759,2.2757,2.2757,2.2756,2.2755,2.2754,2.2759,2.2759,2.2759,2.2759,0,2.2796,2.2795,2.2795,2.2794,2.2793,2.2792,2.279,2.279,2.2786,2.2784,2.2782,2.278,2.2775,2.2771,2.2766,2.2763,2.2759,2.2759,2.2759,2.276,2.276,2.2758,2.2757,2.2759,2.2759,2.2759,2.2759,2.2759,2.2803,2.2804,2.2802,2.2801,2.2799,2.2797,2.2797,2.2794,2.2792,2.2788,2.2786,2.2783,2.2778,2.2771,2.2767,2.2763,2.2762,2.2762,2.2761,2.2761,2.2761,2.2761,2.2763,2.2763,2.2763,2.2763,2.2763,0,2.2811,2.2809,2.2808,2.2806,2.2804,2.2802,2.2799,2.2797,2.2795,2.2791,2.2789,2.2784,2.2779,2.2774,2.2768,2.2766,2.2764,2.2765,2.2764,2.2763,2.2763,2.2764,2.2766,2.2766,2.2766,2.2766,2.2766,2.2766,2.2815,2.2815,2.2813,2.2811,2.2809,2.2806,2.2804,2.2801,2.2798,2.2794,2.279,2.2787,2.2781,2.2775,2.277,2.2768,2.2765,2.2766,2.2764,2.2764,2.2764,2.2763,2.2764,2.2766,2.2766,2.2764,2.2764,2.2764]}]]